Regional Weather Roundup
Issued by NWS

Home | Current Version | Previous Version | Graphics & Text | Print | Product List | Glossary On
Versions: 1 2 3 4 5 6 7 8 9 10 11 12 13 14 15 16 17 18 19 20 21 22 23 24 25 26 27
000
ASUS45 KTFX 220210
RWRMT
MONTANA REGIONAL WEATHER ROUNDUP
NATIONAL WEATHER SERVICE GREAT FALLS MT
700 PM MST SAT JAN 21 2017

NOTE: "FAIR" INDICATES FEW OR NO CLOUDS BELOW 12000 FEET WITH NO
SIGNIFICANT WEATHER AND/OR OBSTRUCTIONS TO VISIBILITY.

MTZ001>007-043-220300-
WEST OF THE DIVIDE

CITY           SKY/WX    TMP DP  RH WIND       PRES   REMARKS
KALISPELL      LGT SNOW  24  23  96 CALM      29.68R
MISSOULA       CLOUDY    23  23 100 CALM      29.69R FOG
BUTTE          CLOUDY    16  10  77 SE5       29.62R
MULLAN PASS    FOG       26  23  88 S6        29.57R VSB 1/2 WCI  19
ANACONDA         N/A     23  18  80 CALM      29.64R
DEER LODGE       N/A     21  18  86 CALM      29.67R
EUREKA           N/A     27  25  93 CALM      29.70R
HAMILTON         N/A     25  21  86 CALM        N/A
RONAN            N/A     26  24  92 CALM      29.73R
$$

MTZ008-052>055-220300-
SOUTHWEST MONTANA

CITY           SKY/WX    TMP DP  RH WIND       PRES   REMARKS
BOZEMAN        CLOUDY    21  15  78 CALM      29.65R
DILLON         CLOUDY    26  13  57 S10       29.63R WCI  16
W YELLOWSTONE  CLOUDY    23  23 100 SW16      29.64R WCI  10
ENNIS          CLOUDY    32  23  69 S10       29.67R WCI  24
$$

MTZ009-010-012-014-046-048-049-054-220300-
EAST SLOPES AND CENTRAL MONTANA

CITY           SKY/WX    TMP DP  RH WIND       PRES   REMARKS
CUT BANK       MOCLDY    25  20  81 NW7       29.60R WCI  17
GREAT FALLS    CLEAR     24  19  81 W6        29.60R WCI  17
MALMSTROM AFB  CLEAR     24  21  87 CALM      29.61R
HELENA         CLOUDY    15  10  80 CALM      29.66R
AUGUSTA          N/A     24  21  89 CALM      29.59R
BOWMANS CRNR     N/A     26  18  72 S6        29.58R WCI  20
CHOTEAU          N/A     30  23  74 CALM      29.62R
CONRAD           N/A     20  19  96 W5        29.66R
POWER            N/A     18  17  94 W7        29.59R WCI   9
RAYNESFORD       N/A     24  18  77 CALM      29.60R
ULM              N/A     23  20  89 MISG      29.61R
$$

MTZ011-013-016-021-045-047-050-051-220300-
NORTH CENTRAL MONTANA

CITY           SKY/WX    TMP DP  RH WIND       PRES   REMARKS
HAVRE          CLEAR     24  22  91 W7        29.60R WCI  16
LEWISTOWN      CLOUDY    25  19  78 SW10      29.58R WCI  15
CHINOOK          N/A     27  25  93 W6        29.59R WCI  20
DENTON         MOCLDY    28  21  76 S9        29.56R WCI  19
FORT BENTON      N/A     28  23  80 MISG      29.62R
GEYSER           N/A     27  20  77 W10       29.58R WCI  17
GRASS RANGE      N/A     30  22  72 W14       29.55R WCI  20
JUDITH GAP       N/A     23  17  77 N7        29.57R WCI  14
ROY              N/A     30  22  73 MISG      29.56R
STANFORD         N/A     23  20  87 W8        29.58R WCI  14
WINIFRED         N/A     27  22  82 W7        29.58R WCI  20
$$

MTZ017>020-022>027-061-062-220300-
NORTHEAST MONTANA

CITY           SKY/WX    TMP DP  RH WIND       PRES   REMARKS
GLASGOW        CLEAR     25  22  88 W5        29.53R
JORDAN           N/A     26  23  88 W8        29.55R WCI  18
SIDNEY         CLEAR     21  18  88 S3        29.55R
WOLF POINT     CLEAR     14  12  92 CALM      29.56R
PLENTYWOOD       N/A     30  28  93 NW14      29.51R WCI  20
POPLAR           N/A     19  16  86 CALM      29.56R
$$

MTZ028>42-056>058-220300-
SOUTHCENTRAL AND SOUTHEAST MONTANA

CITY           SKY/WX    TMP DP  RH WIND       PRES   REMARKS
BAKER          CLEAR     24  20  84 W12       29.55R WCI  13
BILLINGS       MOCLDY    31  20  63 SW20      29.59R WCI  19
LIVINGSTON     CLOUDY    25  16  68 W6        29.60R WCI  18
MILES CITY     CLEAR     23  19  85 SW3       29.58R
BIG TIMBER     MOCLDY    32  19  59 SW15      29.61R WCI  22
FORSYTH          N/A     21  21 100 CALM      29.58R
HARLOWTON      MOCLDY    27  18  69 N6        29.58R WCI  20
LAUREL           N/A     27  17  65 SW1       29.62
$$

REGIONAL REPORTS...DAKOTAS

CITY           SKY/WX    TMP DP  RH WIND       PRES   REMARKS
WILLISTON      CLOUDY    31  28  89 NW12      29.53R WCI  22
MINOT          CLOUDY    27  23  85 S6        29.50R WCI  20
DICKINSON      CLEAR     22  17  81 W14       29.49R WCI   9
BEACH            N/A     23  19  86 SW6       29.57R WCI  16
CROSBY         FOG       28  28 100 CALM      29.52R VSB 3/4
WATFORD CITY     N/A     21  19  93 W3        29.53R
BISMARCK       CLOUDY    29  25  85 CALM      29.53R
GRAND FORKS    LGT RAIN  35  33  92 E3        29.53R
FARGO          CLOUDY    37  34  89 CALM      29.52R
BUFFALO SD       N/A     28  23  81 W7        29.49R WCI  21
RAPID CITY     CLEAR     28  24  85 N8        29.56R WCI  20
$$

REGIONAL REPORTS...WYOMING/IDAHO/WASHINGTON

CITY           SKY/WX    TMP DP  RH WIND       PRES   REMARKS
GILLETTE       CLEAR     26  24  92 SW3       29.57R
SHERIDAN       CLOUDY    23  16  74 VRB6      29.58R WCI  16
BUFFALO WY     CLOUDY    26  19  74 W6        29.58R WCI  19
CODY           CLOUDY    24  18  77 E5        29.60R
YELLOWSTONE LA   N/A     20  17  88 VRB5      29.63R
IDAHO FALLS    CLOUDY    28  27  96 SW15      29.73R WCI  16
SALMON         CLOUDY    16  14  93 CALM      29.72R
BOISE          MIX PCPN  37  31  78 SE6       29.76R
SPOKANE        CLOUDY    36  31  82 NE8       29.61R WCI  30
$$

REGIONAL REPORTS...ALBERTA

CITY           SKY/WX    TMP DP  RH WIND       PRES   REMARKS
EDMONTON       CLOUDY    21  16  79 N10       29.75R WCI  10
CALGARY        MOCLDY    25  19  80 N8        29.64R WCI  16
LETHBRIDGE     PTCLDY    23  21  93 W8        29.62R WCI  14
MEDICINE HAT   FRZ DRZL  27  27 100 NW8       29.63R FOG     WCI  18
WATERTON GATE    N/A     27  19  74 N2          N/A
CARDSTON         N/A     27  19  74 SW6         N/A  WCI  20
MILK RIVER       N/A     23  21  93 NW7         N/A  WCI  15
ONEFOUR          N/A     27  25  93 NW17        N/A  WCI  14
$$

REGIONAL REPORTS...SASKATCHEWAN

CITY           SKY/WX    TMP DP  RH WIND       PRES   REMARKS
SWIFT CURRENT  FRZ RAIN  27  27 100 NW12      29.53R VSB 5/8 WCI  16
REGINA         FLURRIES  27  25  93 W9        29.51R WCI  17
SASKATOON      FLURRIES  28  27  93 N10       29.56R WCI  19
CYPRESS HILLS    N/A     23  21  93 NW8         N/A  WCI  14
VAL MARIE        N/A     28  27  93 N9          N/A  WCI  20
ROCKGLEN         N/A     27  27 100 NW10        N/A  WCI  17
$$




USA.gov is the U.S. government's official web portal to all federal, state and local government web resources and services.